"TOA5","AWS1","CR1000","7964","CR1000.Std.14","CPU:AWS1_114.CR1","64363","TBL110"
"TIMESTAMP","RECORD","Wind_spd_WVc(1)","Wind_spd_WVc(2)","Air_Temp_Avg","Humidity_Avg","SW_upper_Wm2_Avg","Rain_Tot","Press_Avg","Issui_Tot","Depth_cm","SR50A_Raw","Quality","Ground_Temp_Avg(1)","Ground_Temp_Avg(2)","SW_lower_Wm2_Avg","Albedo_Avg","SWC_per(1)","SWC_per(2)","Period(1)","Period(2)"
"TS","RN","","","","","","","","","","","","","","","","","","",""
"","","WVc","WVc","Avg","Avg","Avg","Tot","Avg","Tot","Smp","Smp","Smp","Avg","Avg","Avg","Avg","Smp","Smp","Smp","Smp"
"2018-03-25 00:00:00",333277,0.007,64.71,-1.102,86.9,0,0,867.3395,0,44.51,2.74,191,0.426,0.777,0.01516852,0,54.29,62.48,34.34,36.24
"2018-03-25 00:10:00",333278,0.029,64.2,-0.858,85.7,0.007865938,0,867.3605,0,44.48,2.739,190,0.421,0.784,0.5460667,0.096,54.24,62.48,34.33,36.24
"2018-03-25 00:20:00",333279,0,0,-0.69,84.8,0,0,867.3416,0,44.49,2.738,191,0.421,0.791,0.6332857,0,54.24,62.48,34.33,36.24
"2018-03-25 00:30:00",333280,0.083,34.32,-0.61,83.7,0,0,867.3563,0,44.39,2.739,191,0.418,0.795,0.4247186,0,54.24,62.48,34.33,36.24
"2018-03-25 00:40:00",333281,0.021,9,-0.848,84.2,0,0,867.5608,0,44.21,2.743,173,0.412,0.792,0,0,54.24,62.48,34.33,36.24
"2018-03-25 00:50:00",333282,0.073,26.98,-1.189,85.7,0,0,867.5755,0,44.4,2.742,190,0.423,0.814,0,0,54.24,62.48,34.33,36.24
"2018-03-25 01:00:00",333283,0.033,53.27,-1.223,84.7,0,0,867.5123,0,44.39,2.743,192,0.438,0.803,0,0,54.29,62.48,34.34,36.24
"2018-03-25 01:10:00",333284,0.235,30.78,-1.166,78.9,0,0,867.4259,0,44.28,2.741,191,0.443,0.793,0.3261232,0,54.24,62.48,34.33,36.24
"2018-03-25 01:20:00",333285,0.699,7.342,-0.763,70.86,0,0,867.369,0,44.58,2.738,182,0.43,0.774,0.4323074,0,54.24,62.48,34.33,36.24
"2018-03-25 01:30:00",333286,0.719,5.581,-0.695,68.15,0,0,867.3036,0,44.13,2.742,190,0.434,0.785,0.1592739,0,54.24,62.48,34.33,36.24
"2018-03-25 01:40:00",333287,0.139,38.35,-1.165,72.64,0,0,867.1561,0,44.44,2.742,189,0.445,0.79,0,0,54.24,62.48,34.33,36.24
"2018-03-25 01:50:00",333288,0.262,34.27,-1.3,72.07,0,0,867.0844,0,44.45,2.741,192,0.433,0.782,0.003792394,0,54.24,62.48,34.33,36.24
"2018-03-25 02:00:00",333289,0.257,55.63,-1.258,71.58,0,0,867.0739,0,44.52,2.741,192,0.449,0.796,0.01516974,0,54.24,62.48,34.33,36.24
"2018-03-25 02:10:00",333290,0.249,5.534,-1.056,68.75,0,0,867.0844,0,44.33,2.742,192,0.461,0.805,0.2123932,0,54.24,62.48,34.33,36.24
"2018-03-25 02:20:00",333291,0.328,329.7,-1.151,70.03,0,0,867.0823,0,44.46,2.742,192,0.465,0.811,0.04172068,0,54.24,62.48,34.33,36.24
"2018-03-25 02:30:00",333292,0.476,12.05,-1.252,69.41,0,0,867.0844,0,44.19,2.743,191,0.465,0.811,0.03034252,0,54.24,62.48,34.33,36.24
"2018-03-25 02:40:00",333293,0.638,18.2,-1.084,68.15,0,0,867.0844,0,44.46,2.741,191,0.478,0.824,0.09482492,0,54.18,62.48,34.32,36.24
"2018-03-25 02:50:00",333294,0.211,326.2,-0.975,67.89,0,0,867.0883,0,44.17,2.743,182,0.492,0.838,0.007586531,0,54.18,62.48,34.32,36.24
"2018-03-25 03:00:00",333295,0.81,355.9,-1.005,67.69,0,0,867.0871,0,44.58,2.738,187,0.501,0.847,0.03413981,0,54.18,62.48,34.32,36.24
"2018-03-25 03:10:00",333296,0.682,357.5,-0.832,66.45,0,0,867.0984,0,44.17,2.743,191,0.502,0.847,0.07207323,0,54.24,62.48,34.33,36.24
"2018-03-25 03:20:00",333297,0.799,339,-0.911,66.7,0,0,867.1004,0,44.28,2.741,191,0.503,0.848,0.01517338,0,54.18,62.42,34.32,36.23
"2018-03-25 03:30:00",333298,0.673,1.04,-0.955,66.45,0,0,867.144,0,44.61,2.739,192,0.504,0.85,0,0,54.18,62.42,34.32,36.23
"2018-03-25 03:40:00",333299,0.343,329.7,-0.854,66.19,0,0,867.1201,0,44.31,2.742,191,0.504,0.85,0,0,54.18,62.42,34.32,36.23
"2018-03-25 03:50:00",333300,0.297,342,-1.117,68.28,0,0,867.1573,0,44.62,2.74,190,0.505,0.851,0,0,54.18,62.42,34.32,36.23
"2018-03-25 04:00:00",333301,0.574,305.7,-0.912,67.47,0,0,867.3206,0,44.63,2.738,190,0.503,0.849,0.01896685,0,54.18,62.42,34.32,36.23
"2018-03-25 04:10:00",333302,0.479,316.2,-1,67.83,0,0,867.4001,0,44.49,2.742,190,0.504,0.85,0.007586679,0,54.18,62.42,34.32,36.23
"2018-03-25 04:20:00",333303,0.371,299.7,-1.387,71.03,0,0,867.5608,0,44.17,2.746,191,0.506,0.857,0,0,54.12,62.42,34.3,36.23
"2018-03-25 04:30:00",333304,0.078,172.5,-1.67,72.41,0,0,867.6575,0,44.25,2.747,190,0.508,0.873,0,0,54.12,62.42,34.3,36.23
"2018-03-25 04:40:00",333305,0.289,234.1,-1.724,72.03,0,0,8
"2018-03-25 04:40:00",333305,0.289,234.1,-1.724,72.03,0,0,867.7571,0,44.17,2.746,186,0.508,0.887,0.01896712,0,54.12,62.42,34.3,36.23
"2018-03-25 04:50:00",333306,0.345,201.9,-1.703,71.13,0,0,867.8586,0,44.25,2.747,191,0.508,0.895,0.003793426,0,54.18,62.42,34.32,36.23
"2018-03-25 05:00:00",333307,0.583,223.6,-1.866,70.42,0,0,867.8671,0,44.46,2.744,192,0.508,0.895,0.05310798,0,54.18,62.42,34.32,36.23
"2018-03-25 05:10:00",333308,0.503,200.8,-1.629,66.47,0,0,867.9373,0,43.9,2.75,192,0.508,0.894,0.09104225,0,54.12,62.36,34.3,36.21
"2018-03-25 05:20:00",333309,0.7,173.9,-1.936,67.94,0,0,867.9353,0,44.4,2.745,191,0.509,0.894,0.007586854,0,54.18,62.36,34.32,36.21
"2018-03-25 05:30:00",333310,0.686,178.5,-1.821,65.84,0,0,868.0049,0,44.45,2.745,191,0.511,0.895,0,0,54.12,62.42,34.3,36.23
"2018-03-25 05:40:00",333311,0.694,198.2,-1.793,63.49,0,0,868.1462,0,44.61,2.742,190,0.513,0.895,0.106216,0,54.12,62.36,34.3,36.21
"2018-03-25 05:50:00",333312,0.774,195,-1.605,61.26,0.0590147,0,868.1884,0,44.17,2.746,191,0.508,0.894,1.012845,0.482,54.12,62.42,34.3,36.23
"2018-03-25 06:00:00",333313,0.613,194.2,-1.65,60.95,2.226821,0,868.1904,0,44.44,2.744,192,0.508,0.895,2.530216,1.395,54.12,62.36,34.3,36.21
"2018-03-25 06:10:00",333314,0.824,187.1,-1.432,58.56,6.963735,0,868.3317,0,44.43,2.743,190,0.508,0.894,4.844206,0.704,54.12,62.36,34.3,36.21
"2018-03-25 06:20:00",333315,0.558,219.7,-1.364,57.81,12.77472,0,868.3907,0,44.13,2.746,191,0.508,0.897,7.177164,0.565,54.12,62.36,34.3,36.21
"2018-03-25 06:30:00",333316,1.013,181.6,-1.635,60.75,25.9586,0,868.4349,0,44.53,2.742,192,0.508,0.895,15.31786,0.581,54.12,62.3,34.3,36.2
"2018-03-25 06:40:00",333317,0.762,194.4,-1.27,58.4,43.17909,0,868.4434,0,44.42,2.742,190,0.508,0.866,23.99343,0.58,54.12,62.36,34.3,36.21
"2018-03-25 06:50:00",333318,0.857,169.5,-1.094,56.98,51.2405,0,868.5025,0,44.29,2.742,190,0.508,0.854,26.81194,0.536,54.12,62.3,34.3,36.2
"2018-03-25 07:00:00",333319,0.693,158.7,-0.767,54.3,48.96253,0,868.6943,0,44.41,2.739,191,0.502,0.854,30.80263,0.63,54.12,62.3,34.3,36.2
"2018-03-25 07:10:00",333320,0.989,170.6,-0.463,53.04,57.22852,0,868.6943,0,44.48,2.737,192,0.487,0.859,34.88815,0.614,54.07,62.3,34.29,36.2
"2018-03-25 07:20:00",333321,1.097,165.5,-0.364,51.57,59.61263,0,868.6818,0,44.5,2.736,190,0.499,0.85,36.48512,0.612,54.07,62.3,34.29,36.2
"2018-03-25 07:30:00",333322,1.153,161.4,-0.059,48.5,68.14886,0,868.6493,0,44.45,2.735,191,0.501,0.836,41.50307,0.61,54.07,62.3,34.29,36.2
"2018-03-25 07:40:00",333323,1.186,158.8,0.16,46.92,161.1682,0,868.6367,0,44.38,2.734,190,0.497,0.844,51.69815,0.459,54.07,62.3,34.29,36.2
"2018-03-25 07:50:00",333324,1.606,161.3,0.559,44.63,310.6473,0,868.7888,0,44.18,2.734,182,0.488,0.828,69.93948,0.234,54.07,62.3,34.29,36.2
"2018-03-25 08:00:00",333325,1.28,162.6,0.986,40.03,266.5323,0,868.8537,0,44.48,2.729,186,0.525,0.852,89.2718,0.499,54.07,62.3,34.29,36.2
"2018-03-25 08:10:00",333326,1.055,162.7,1.527,37.28,138.2835,0,868.8552,0,44.42,2.727,186,0.463,0.861,104.0962,0.818,54.07,62.3,34.29,36.2
"2018-03-25 08:20:00",333327,0.841,155.6,2.073,34.96,254.1457,0,869.0448,0,44.01,2.729,190,0.475,0.785,107.9225,0.51,54.12,62.3,34.3,36.2
"2018-03-25 08:30:00",333328,0.894,168.3,2.498,32.14,240.5944,0,869.0792,0,43.7,2.729,191,0.551,0.867,103.1833,0.455,54.07,62.3,34.29,36.2
"2018-03-25 08:40:00",333329,0.709,159.8,3.088,31.19,99.69123,0,869.0362,0,43.83,2.726,189,0.471,0.857,103.2792,1.073,54.07,62.24,34.29,36.19
"2018-03-25 08:50:00",333330,0.412,232.9,3.184,30.05,100.9881,0,869.1502,0,44.68,2.717,189,0.44,0.806,99.14587,1.02,54.01,62.24,34.27,36.19
"2018-03-25 09:00:00",333331,1.01,204.6,3.355,30.52,87.44174,0,869.0065,0,44.45,2.718,190,0.427,0.788,92.8098,1.07,54.01,62.24,34.27,36.19
"2018-03-25 09:10:00",333332,0.765,208.7,3.75,31.61,88.09675,0,868.9659,0,44.82,2.712,186,0.423,0.768,85.25668,0.971,54.01,62.24,34.27,36.19
"2018-03-25 09:20:00",333333,0.918,173.7,4.192,32.53,93.91503,0,868.9493,0,43.8,2.722,182,0.438,0.772,81.35158,0.869,54.01,62.24,34.27,36.19
"2018-03-25 09:30:00",333334,0.931,192.2,4.374,31.61,98.13351,0,868.9871,0,44.62,2.71,186,0.464,0.807,81.80254,0.839,54.01,62.24,34.27,36.19
"2018-03-25 09:40:00",333335,0.853,147.8,5.314,31.49,168.2305,0,869.1525,0,44.58,2.707,186,0.454,0.818,84.30446,0.556,54.01,62.24,34.27,36.19
"2018-03-25 09:50:00",333336,1.041,165.2,5.349,30.42,266.2932,0,869.1732,0,45.36,2.702,191,0.494,0.802,87.92471,0.455,54.01,62.24,34.27,36.19
"2018-03-25 10:00:00",333337,0.755,186,5.276,30.42,130.4043,0,869.1552,0,44.1,2.715,190,0.488,0.833,97.88704,0.809,54.01,62.24,34.27,36.19
"2018-03-25 10:10:00",333338,0.966,299.9,4.719,29.61,764.9492,0,869.176,0,44.66,2.71,191,0.477,0.832,112.0533,0.161,54.01,62.18,34.27,36.17
"2018-03-25 10:20:00",333339,1.07,310.2,5.039,31.5,700.8041,0,869.2012,0,44.19,2.714,187,0.457,0.834,127.5045,0.308,54.01,62.18,34.27,36.17
"2018-03-25 10:30:00",333340,0.691,37.35,5.364,32.14,97.22572,0,869.2201,0,44.26,2.709,190,0.426,0.804,148.2814,1.529,54.01,62.18,34.27,36.17
"2018-03-25 10:40:00",333341,1.024,113.3,5.91,31.03,116.0968,0,869.4076,0,44.04,2.709,187,0.413,0.756,183.2869,1.671,54.01,62.18,34.27,36.17
"2018-03-25 10:50:00",333342,1.02,40.01,6.024,31.04,369.2735,0,869.4287,0,44.14,2.712,184,0.377,0.731,217.0211,0.985,53.95,62.18,34.26,36.17
"2018-03-25 11:00:00",333343,0.503,7.336,5.857,32.1,925.841,0,869.4287,0,43.15,2.717,180,0.363,0.724,240.6492,0.26,53.95,62.18,34.26,36.17
"2018-03-25 11:10:00",333344,0.501,284.6,5.936,33.61,952.7034,0,869.4287,0,43.69,2.715,188,0.384,0.746,257.6592,0.27,53.95,62.18,34.26,36.17
"2018-03-25 11:20:00",333345,0.8,295.1,6.102,31.59,972.498,0,869.4056,0,43.56,2.715,178,0.368,0.782,284.8126,0.293,54.01,62.18,34.27,36.17
"2018-03-25 11:30:00",333346,0.628,310.1,6.286,31.14,984.5991,0,869.3566,0,43.26,2.715,188,0.332,0.736,314.4587,0.319,53.95,62.18,34.26,36.17
"2018-03-25 11:40:00",333347,0.694,289.6,6.766,30.11,993.672,0,869.2633,0,43.02,2.712,198,0.306,0.707,338.1615,0.34,53.95,62.18,34.26,36.17
"2018-03-25 11:50:00",333348,0.959,81.4,7.237,26.14,993.5383,0,869.1415,0,43.19,2.712,180,0.315,0.677,349.6254,0.352,53.95,62.12,34.26,36.16
"2018-03-25 12:00:00",333349,0.954,286.5,7.183,26.8,996.0731,0,869.09,0,43.67,2.71,182,0.321,0.627,356.0905,0.357,53.95,62.18,34.26,36.17
"2018-03-25 12:10:00",333350,0.73,225.4,7.247,26.96,993.8248,0,869.0309,0,43.64,2.704,181,0.272,0.572,354.0771,0.356,53.95,62.18,34.26,36.17
"2018-03-25 12:20:00",333351,0.645,207.6,8.29,25.7,982.8341,0,868.8792,0,42.53,2.716,177,0.223,0.556,357.5619,0.364,53.95,62.12,34.26,36.16
"2018-03-25 12:30:00",333352,0.862,7.037,7.763,24.31,985.9417,0,868.8308,0,42.94,2.712,186,0.185,0.55,357.4102,0.363,53.9,62.18,34.25,36.17
"2018-03-25 12:40:00",333353,0.713,292.7,7.837,27.35,972.6854,0,868.8245,0,43.06,2.712,186,0.183,0.57,351.5801,0.361,53.95,62.12,34.26,36.16
"2018-03-25 12:50:00",333354,0.769,318.7,7.601,26.93,965.2833,0,868.8308,0,42.69,2.714,185,0.186,0.566,347.288,0.36,53.95,62.12,34.26,36.16
"2018-03-25 13:00:00",333355,0.437,279.6,7.773,26.57,947.6894,0,868.8434,0,42.1,2.72,181,0.167,0.551,339.2266,0.358,53.95,62.12,34.26,36.16
"2018-03-25 13:10:00",333356,0.326,282.9,8.11,26.52,929.8245,0,868.835,0,41.88,2.721,187,0.174,0.538,327.4716,0.352,53.95,62.12,34.26,36.16
"2018-03-25 13:20:00",333357,0.744,335.7,8.38,27,917.6133,0,868.8308,0,41.67,2.723,185,0.165,0.509,316.1713,0.345,53.9,62.12,34.25,36.16
"2018-03-25 13:30:00",333358,0.558,307.3,7.607,28.74,890.9948,0,868.675,0,42.61,2.715,189,0.171,0.511,296.9459,0.333,53.9,62.12,34.25,36.16
"2018-03-25 13:40:00",333359,0.388,252.9,8.3,28,870.8588,0,868.5172,0,42.66,2.712,189,0.153,0.507,266.5225,0.306,53.9,62.12,34.25,36.16
"2018-03-25 13:50:00",333360,0.762,284.3,7.944,27.84,846.9237,0,868.4119,0,42.4,2.719,174,0.15,0.509,219.2186,0.259,53.9,62.12,34.25,36.16
"2018-03-25 14:00:00",333361,0.643,157.6,8.25,27.35,833.2628,0,868.4518,0,42.03,2.717,170,0.161,0.505,164.9708,0.198,53.9,62.12,34.25,36.16
"2018-03-25 14:10:00",333362,0.984,306.2,7.755,28.26,498.4694,0,868.3381,0,42.41,2.717,185,0.161,0.529,106.1961,0.237,53.9,62.06,34.25,36.15
"2018-03-25 14:20:00",333363,1.17,298.6,7.429,27.34,100.6517,0,868.496,0,41.94,2.725,185,0.159,0.547,67.93094,0.682,53.84,62.06,34.23,36.15
"2018-03-25 14:30:00",333364,0.853,312,7.126,26.19,79.54545,0,868.5781,0,41.51,2.728,187,0.185,0.547,48.5616,0.61,53.9,62.06,34.25,36.15
"2018-03-25 14:40:00",333365,0.926,277.6,7.079,28.46,76.81483,0,868.574,0,41.58,2.73,186,0.185,0.547,39.70467,0.517,53.9,62.06,34.25,36.15
"2018-03-25 14:50:00",333366,0.816,324.8,7.389,26.56,74.67477,0,868.6581,0,40.84,2.733,173,0.192,0.551,36.06096,0.483,53.9,62.06,34.25,36.15
"2018-03-25 15:00:00",333367,0.598,289.8,7.792,26.39,71.15901,0,868.7003,0,41.59,2.726,212,0.207,0.568,32.72936,0.46,53.95,62.12,34.26,36.16
"2018-03-25 15:10:00",333368,0.626,280.1,7.55,28.65,68.05873,0,868.8328,0,41.68,2.728,192,0.243,0.59,30.13212,0.443,54.01,62.12,34.27,36.16
"2018-03-25 15:20:00",333369,0.694,286,7.394,27.38,65.5015,0,868.8976,0,41.94,2.723,201,0.256,0.667,28.46714,0.435,54.18,62.12,34.32,36.16
"2018-03-25 15:30:00",333370,0.661,264,7.637,28.46,62.6642,0,868.9146,0,41.27,2.731,211,0.284,0.701,26.43029,0.422,54.29,62.18,34.34,36.17
"2018-03-25 15:40:00",333371,0.703,323.9,7.468,29.09,58.49277,0,868.9675,0,41.27,2.731,189,0.353,0.688,24.21828,0.414,54.63,62.18,34.42,36.17
"2018-03-25 15:50:00",333372,0.361,238.1,7.562,28.28,55.09812,0,868.9538,0,41.6,2.726,186,0.372,0.665,22.53619,0.409,54.8,62.3,34.46,36.2
"2018-03-25 16:00:00",333373,0.199,255.7,7.577,29.3,51.29791,0,868.9219,0,41.79,2.725,192,0.369,0.66,20.89926,0.407,54.92,62.48,34.49,36.24
"2018-03-25 16:10:00",333374,0.232,204.5,7.343,31.33,47.79615,0,868.9249,0,40.89,2.736,193,0.364,0.674,19.30012,0.404,54.97,62.66,34.51,36.28
"2018-03-25 16:20:00",333375,0.242,243,7.206,30.82,44.25892,0,868.9631,0,41.55,2.729,204,0.344,0.677,17.98895,0.406,55.09,62.84,34.53,36.32
"2018-03-25 16:30:00",333376,0.647,263.5,7.066,31.04,41.60598,0,869.1695,0,41.38,2.732,180,0.323,0.677,16.90135,0.406,55.2,62.96,34.56,36.35
"2018-03-25 16:40:00",333377,0.331,218.4,6.898,31.68,38.11589,0,869.1758,0,41.82,2.728,190,0.297,0.676,15.40448,0.404,55.2,63.14,34.56,36.39
"2018-03-25 16:50:00",333378,0.323,243.1,6.834,31.19,34.84589,0,869.1779,0,41.36,2.733,174,0.316,0.677,14.22594,0.408,55.2,63.26,34.56,36.42
"2018-03-25 17:00:00",333379,0.191,229.3,6.641,32.15,31.24575,0,869.338,0,41.85,2.729,216,0.331,0.677,12.70633,0.407,55.32,63.32,34.59,36.43
"2018-03-25 17:10:00",333380,0.137,217.3,6.493,32.52,27.01677,0,869.4201,0,41.43,2.734,201,0.331,0.681,11.22841,0.416,55.32,63.39,34.59,36.44
"2018-03-25 17:20:00",333381,0.148,205.7,6.367,32.93,23.07898,0,869.4286,0,41.35,2.736,195,0.334,0.686,9.682425,0.42,55.32,63.45,34.59,36.46
"2018-03-25 17:30:00",333382,0.213,206.8,6.141,33.64,19.05906,0,869.4286,0,41.39,2.736,184,0.346,0.719,8.075984,0.424,55.32,63.45,34.59,36.46
"2018-03-25 17:40:00",333383,0.219,226.3,5.962,34.69,14.11916,0,869.4622,0,41.36,2.737,204,0.361,0.74,6.147325,0.436,55.32,63.51,34.59,36.47
"2018-03-25 17:50:00",333384,0.087,214.4,5.801,35.07,8.60519,0,869.4559,0,41.42,2.737,189,0.398,0.775,4.290665,0.504,55.32,63.57,34.59,36.49
"2018-03-25 18:00:00",333385,0.001,219.4,5.518,34.9,3.133321,0,869.6181,0,41.38,2.74,188,0.442,0.796,2.062099,0.844,55.37,63.57,34.6,36.49
"2018-03-25 18:10:00",333386,0.137,200,4.938,40.79,0,0,869.7234,0,41.35,2.745,186,0.457,0.809,0.299469,0,55.32,63.63,34.59,36.5
"2018-03-25 18:20:00",333387,0.116,187.1,4.003,48.13,0,0,869.9066,0,41.42,2.746,176,0.453,0.799,0,0,55.32,63.63,34.59,36.5
"2018-03-25 18:30:00",333388,0.389,186.2,3.533,50.08,0,0,869.934,0,41.43,2.75,195,0.441,0.733,0,0,55.32,63.63,34.59,36.5
"2018-03-25 18:40:00",333389,0.513,182.2,2.907,52.86,0,0,869.9523,0,41.55,2.751,192,0.429,0.699,0,0,55.32,63.69,34.59,36.51
"2018-03-25 18:50:00",333390,0.768,185.8,2.708,52.39,0,0,870.0141,0,41.5,2.751,205,0.414,0.679,0,0,55.32,63.69,34.59,36.51
"2018-03-25 19:00:00",333391,0.727,191.2,2.495,53.12,0,0,870.0007,0,41.6,2.752,191,0.397,0.683,0,0,55.26,63.69,34.57,36.51
"2018-03-25 19:10:00",333392,0.678,193,2.362,52.4,0,0,870.0203,0,41.76,2.751,218,0.363,0.697,0,0,55.32,63.75,34.59,36.53
"2018-03-25 19:20:00",333393,0.771,185,2.099,54.68,0,0,870.0252,0,41.69,2.753,208,0.342,0.714,0,0,55.26,63.75,34.57,36.53
"2018-03-25 19:30:00",333394,0.54,180.1,2.166,52.88,0,0,870.0264,0,41.62,2.752,188,0.341,0.74,0,0,55.32,63.75,34.59,36.53
"2018-03-25 19:40:00",333395,0.508,183.5,2.285,51.5,0,0,870.0267,0,41.93,2.748,248,0.348,0.759,0,0,55.32,63.69,34.59,36.51
"2018-03-25 19:50:00",333396,0.182,180.8,2.421,50.9,0,0,870.0352,0,41.51,2.752,174,0.368,0.764,0,0,55.32,63.75,34.59,36.53
"2018-03-25 20:00:00",333397,0.579,183.6,2.356,50.33,0,0,870.17,0,41.68,2.753,203,0.384,0.773,0.003790878,0,55.32,63.69,34.59,36.51
"2018-03-25 20:10:00",333398,0.384,190.9,2.371,48.5,0,0,870.2015,0,41.45,2.753,198,0.431,0.795,0.01137419,0,55.26,63.69,34.57,36.51
"2018-03-25 20:20:00",333399,0.548,189.7,2.508,47.17,0,0,870.0857,0,41.44,2.754,175,0.459,0.809,0,0,55.26,63.63,34.57,36.5
"2018-03-25 20:30:00",333400,0.44,194.1,2.543,46.2,0,0,870.0773,0,41.2,2.755,189,0.476,0.823,0.0151671,0,55.26,63.63,34.57,36.5
"2018-03-25 20:40:00",333401,0.367,190.7,2.429,45.9,0,0,870.0295,0,41.25,2.754,176,0.49,0.836,0,0,55.26,63.57,34.57,36.49
"2018-03-25 20:50:00",333402,0.399,189.9,2.045,50.08,0,0,870.0624,0,41.45,2.755,178,0.499,0.845,0,0,55.2,63.57,34.56,36.49
"2018-03-25 21:00:00",333403,0.296,205.1,2.191,47.59,0,0,870.2234,0,41.32,2.758,176,0.504,0.848,0.02654466,0,55.15,63.57,34.55,36.49
"2018-03-25 21:10:00",333404,0.314,195.1,1.909,49.02,0,0,870.3121,0,41.55,2.754,209,0.506,0.846,0,0,55.2,63.57,34.56,36.49
"2018-03-25 21:20:00",333405,0.458,193.1,1.852,49.05,0,0,870.3942,0,41.49,2.755,209,0.503,0.84,0,0,55.2,63.57,34.56,36.49
"2018-03-25 21:30:00",333406,0.301,191.7,1.896,49.07,0,0,870.5803,0,41.51,2.757,189,0.491,0.808,0,0,55.2,63.51,34.56,36.47
"2018-03-25 21:40:00",333407,0.586,193.6,1.605,50.32,0,0,870.6215,0,41.42,2.757,177,0.492,0.796,0,0,55.2,63.51,34.56,36.47
"2018-03-25 21:50:00",333408,0.5,192.3,1.729,50.02,0,0,870.6179,0,41.45,2.758,209,0.456,0.782,0,0,55.15,63.51,34.55,36.47
"2018-03-25 22:00:00",333409,0.638,191.5,1.412,52.16,0,0,870.6213,0,41.41,2.758,178,0.444,0.769,0,0,55.15,63.51,34.55,36.47
"2018-03-25 22:10:00",333410,0.665,187.5,1.457,51.84,0,0,870.6249,0,41.55,2.757,174,0.431,0.766,0,0,55.15,63.45,34.55,36.46
"2018-03-25 22:20:00",333411,0.676,190.8,1.349,53.06,0,0,870.6253,0,41.64,2.757,197,0.421,0.766,0,0,55.15,63.45,34.55,36.46
"2018-03-25 22:30:00",333412,0.658,192.7,1.366,51.49,0,0,870.5642,0,41.82,2.753,212,0.422,0.766,0,0,55.15,63.45,34.55,36.46
"2018-03-25 22:40:00",333413,0.481,191.7,1.667,50.73,0,0,870.5095,0,41.58,2.758,196,0.422,0.767,0.0379213,0,55.09,63.45,34.53,36.46
"2018-03-25 22:50:00",333414,0.238,191.8,1.701,50.5,0,0,870.5495,0,41.18,2.759,172,0.421,0.766,0.007584261,0,55.09,63.45,34.53,36.46
"2018-03-25 23:00:00",333415,0.294,190.1,1.9,49.39,0,0,870.4694,0,41.3,2.756,174,0.421,0.766,0.1289324,0,55.15,63.45,34.55,36.46
"2018-03-25 23:10:00",333416,0.281,187,2.043,49.3,0,0,870.3746,0,41.23,2.758,184,0.421,0.767,0.03412917,0,55.09,63.39,34.53,36.44
"2018-03-25 23:20:00",333417,0.344,188.4,1.694,51.96,0,0,870.3935,0,41.45,2.758,189,0.421,0.769,0,0,55.09,63.45,34.53,36.46
"2018-03-25 23:30:00",333418,0.749,192.9,1.302,53.14,0,0,870.364,0,41.62,2.758,196,0.421,0.764,0,0,55.03,63.45,34.52,36.46
"2018-03-25 23:40:00",333419,0.66,195,1.311,51.65,0,0,870.3049,0,41.45,2.758,184,0.419,0.763,0,0,55.09,63.39,34.53,36.44
"2018-03-25 23:50:00",333420,0.62,190.8,1.412,50.7,0,0,870.1932,0,41.39,2.759,187,0.421,0.768,0,0,55.03,63.39,34.52,36.44
